Wetterdaten: Freitag, 01.04.2016
Datum Zeit Auen-Temp. Temp gefhlt Luftfeuchte Luftdruck Regen Wind Richtung Richtung Sonnenschein Taupunkt Windben
01.04.2016 00:00 13,9 C 14,1 C 44 % 1007,1 hPa 0,0 mm 1,5 km/h (1 Bft) O 90 0 min 1,9 C 8,3 km/h (2 Bft)
01.04.2016 00:05 14,2 C 14,2 C 43 % 1007,1 hPa 0,0 mm 1,2 km/h (1 Bft) SW 225 0 min 1,8 C 0,0 km/h (0 Bft)
01.04.2016 00:10 14,4 C 14,3 C 42 % 1007,2 hPa 0,0 mm 1,5 km/h (1 Bft) S 180 0 min 1,7 C 4,8 km/h (1 Bft)
01.04.2016 00:15 14,5 C 14,4 C 42 % 1007,2 hPa 0,0 mm 2,7 km/h (1 Bft) SW 225 0 min 1,7 C 11,3 km/h (2 Bft)
01.04.2016 00:20 14,4 C 14,4 C 42 % 1007,2 hPa 0,0 mm 3,3 km/h (1 Bft) SW 225 0 min 1,7 C 16,1 km/h (3 Bft)
01.04.2016 00:25 15,4 C 15,3 C 39 % 1007,2 hPa 0,0 mm 6,9 km/h (2 Bft) SO 135 0 min 1,5 C 26,2 km/h (4 Bft)
01.04.2016 00:30 15,0 C 15,0 C 40 % 1007,2 hPa 0,0 mm 8,6 km/h (2 Bft) O-SO 112 0 min 1,5 C 4,8 km/h (1 Bft)
01.04.2016 00:35 14,4 C 14,6 C 40 % 1007,2 hPa 0,0 mm 3,0 km/h (1 Bft) O-SO 112 0 min 1,0 C 0,0 km/h (0 Bft)
01.04.2016 00:40 14,2 C 14,2 C 40 % 1007,2 hPa 0,0 mm 0,9 km/h (0 Bft) SW 225 0 min 0,8 C 6,6 km/h (2 Bft)
01.04.2016 00:45 14,3 C 14,1 C 41 % 1007,2 hPa 0,0 mm 0,6 km/h (0 Bft) S-SO 157 0 min 1,2 C 0,0 km/h (0 Bft)
01.04.2016 00:50 14,3 C 14,0 C 41 % 1007,2 hPa 0,0 mm 1,5 km/h (1 Bft) S-SO 157 0 min 1,2 C 0,0 km/h (0 Bft)
01.04.2016 00:55 13,7 C 13,6 C 42 % 1007,2 hPa 0,0 mm 1,2 km/h (1 Bft) S 180 0 min 1,0 C 0,0 km/h (0 Bft)
01.04.2016 01:00 13,7 C 13,5 C 42 % 1007,2 hPa 0,0 mm 0,6 km/h (0 Bft) O-SO 112 0 min 1,0 C 3,6 km/h (1 Bft)
01.04.2016 01:05 13,0 C 12,9 C 43 % 1007,2 hPa 0,0 mm 0,3 km/h (0 Bft) N-NW 337 0 min 0,7 C 0,0 km/h (0 Bft)
01.04.2016 01:10 12,1 C 12,5 C 45 % 1007,1 hPa 0,0 mm 0,3 km/h (0 Bft) O-SO 112 0 min 0,5 C 0,0 km/h (0 Bft)
01.04.2016 01:15 12,7 C 12,5 C 46 % 1007,1 hPa 0,0 mm 0,0 km/h (0 Bft) O-NO 67 0 min 1,4 C 0,0 km/h (0 Bft)
01.04.2016 01:20 12,1 C 12,1 C 47 % 1007,1 hPa 0,0 mm 0,3 km/h (0 Bft) W 270 0 min 1,1 C 4,2 km/h (1 Bft)
01.04.2016 01:25 11,3 C 11,7 C 47 % 1007,1 hPa 0,0 mm 0,9 km/h (0 Bft) SO 135 0 min 0,4 C 0,0 km/h (0 Bft)
01.04.2016 01:30 11,3 C 11,3 C 48 % 1007,1 hPa 0,0 mm 1,5 km/h (1 Bft) W 270 0 min 0,7 C 0,0 km/h (0 Bft)
01.04.2016 01:35 12,1 C 11,8 C 48 % 1007,1 hPa 0,0 mm 0,6 km/h (0 Bft) O-SO 112 0 min 1,4 C 0,0 km/h (0 Bft)
01.04.2016 01:40 11,0 C 11,0 C 49 % 1007,1 hPa 0,0 mm 0,6 km/h (0 Bft) SO 135 0 min 0,7 C 0,0 km/h (0 Bft)
01.04.2016 01:45 11,9 C 11,5 C 49 % 1007,1 hPa 0,0 mm 2,1 km/h (1 Bft) SO 135 0 min 1,5 C 5,1 km/h (1 Bft)
01.04.2016 01:50 12,1 C 11,8 C 49 % 1007,1 hPa 0,0 mm 2,7 km/h (1 Bft) N 360 0 min 1,7 C 0,0 km/h (0 Bft)
01.04.2016 01:55 11,2 C 11,3 C 49 % 1007,1 hPa 0,0 mm 2,4 km/h (1 Bft) W-SW 247 0 min 0,9 C 5,1 km/h (1 Bft)
01.04.2016 02:00 11,6 C 11,5 C 50 % 1007,1 hPa 0,0 mm 1,2 km/h (1 Bft) SO 135 0 min 1,5 C 0,0 km/h (0 Bft)
01.04.2016 02:05 11,7 C 11,5 C 50 % 1007,1 hPa 0,0 mm 0,3 km/h (0 Bft) S 180 0 min 1,6 C 0,0 km/h (0 Bft)
01.04.2016 02:10 12,5 C 12,1 C 49 % 1007,2 hPa 0,0 mm 0,0 km/h (0 Bft) S-SO 157 0 min 2,1 C 3,9 km/h (1 Bft)
01.04.2016 02:15 11,8 C 11,7 C 48 % 1007,2 hPa 0,0 mm 1,2 km/h (1 Bft) O 90 0 min 1,2 C 0,0 km/h (0 Bft)
01.04.2016 02:20 11,8 C 11,6 C 50 % 1007,2 hPa 0,0 mm 1,8 km/h (1 Bft) SO 135 0 min 1,7 C 3,3 km/h (1 Bft)
01.04.2016 02:25 11,2 C 11,4 C 50 % 1007,2 hPa 0,0 mm 1,5 km/h (1 Bft) SO 135 0 min 1,2 C 4,8 km/h (1 Bft)
01.04.2016 02:30 10,5 C 11,3 C 51 % 1007,1 hPa 0,0 mm 2,1 km/h (1 Bft) SO 135 0 min 0,8 C 0,0 km/h (0 Bft)
01.04.2016 02:35 11,4 C 11,3 C 52 % 1007,1 hPa 0,0 mm 1,8 km/h (1 Bft) O 90 0 min 1,9 C 0,0 km/h (0 Bft)
01.04.2016 02:40 11,7 C 11,6 C 51 % 1007,1 hPa 0,0 mm 0,3 km/h (0 Bft) W-SW 247 0 min 1,9 C 0,0 km/h (0 Bft)
01.04.2016 02:45 11,4 C 11,4 C 51 % 1007,1 hPa 0,0 mm 0,3 km/h (0 Bft) NW 315 0 min 1,6 C 0,0 km/h (0 Bft)
01.04.2016 02:50 11,4 C 11,3 C 51 % 1007,1 hPa 0,0 mm 0,6 km/h (0 Bft) NO 45 0 min 1,6 C 0,0 km/h (0 Bft)
01.04.2016 02:55 11,9 C 11,6 C 50 % 1007,1 hPa 0,0 mm 0,0 km/h (0 Bft) SO 135 0 min 1,8 C 0,0 km/h (0 Bft)
01.04.2016 02:56 11,9 C 11,6 C 50 % 1007,1 hPa 0,0 mm 0,0 km/h (0 Bft) SO 135 0 min 1,8 C 0,0 km/h (0 Bft)
01.04.2016 03:00 10,8 C 11,0 C 51 % 1007,1 hPa 0,0 mm 0,3 km/h (0 Bft) S-SW 202 0 min 1,1 C 0,0 km/h (0 Bft)
01.04.2016 03:05 12,2 C 12,1 C 51 % 1007,1 hPa 0,0 mm 1,2 km/h (1 Bft) SO 135 0 min 2,4 C 0,0 km/h (0 Bft)
01.04.2016 03:10 11,2 C 11,2 C 50 % 1007,3 hPa 0,0 mm 1,5 km/h (1 Bft) NW 315 0 min 1,2 C 0,0 km/h (0 Bft)
01.04.2016 03:15 10,2 C 10,8 C 53 % 1007,3 hPa 0,0 mm 1,2 km/h (1 Bft) NW 315 0 min 1,1 C 0,0 km/h (0 Bft)
01.04.2016 03:20 9,9 C 10,7 C 53 % 1007,3 hPa 0,0 mm 0,6 km/h (0 Bft) SW 225 0 min 0,8 C 0,0 km/h (0 Bft)
01.04.2016 03:25 10,4 C 10,6 C 54 % 1007,3 hPa 0,0 mm 0,6 km/h (0 Bft) S-SO 157 0 min 1,5 C 3,9 km/h (1 Bft)
01.04.2016 03:30 11,3 C 11,6 C 53 % 1007,4 hPa 0,0 mm 1,8 km/h (1 Bft) S-SO 157 0 min 2,1 C 7,2 km/h (2 Bft)
01.04.2016 03:35 11,5 C 11,7 C 52 % 1007,4 hPa 0,0 mm 2,1 km/h (1 Bft) O-SO 112 0 min 2,0 C 3,0 km/h (1 Bft)
01.04.2016 03:40 10,6 C 11,7 C 53 % 1007,4 hPa 0,0 mm 1,5 km/h (1 Bft) S-SW 202 0 min 1,4 C 0,0 km/h (0 Bft)
01.04.2016 03:45 11,7 C 11,7 C 52 % 1007,4 hPa 0,0 mm 3,3 km/h (1 Bft) W-SW 247 0 min 2,2 C 7,5 km/h (2 Bft)
01.04.2016 03:50 12,1 C 12,1 C 51 % 1007,5 hPa 0,0 mm 4,2 km/h (1 Bft) W-SW 247 0 min 2,3 C 3,3 km/h (1 Bft)
01.04.2016 03:55 11,9 C 12,5 C 48 % 1007,5 hPa 0,0 mm 3,0 km/h (1 Bft) S-SO 157 0 min 1,2 C 6,0 km/h (2 Bft)
01.04.2016 04:00 11,0 C 12,2 C 49 % 1007,5 hPa 0,0 mm 1,8 km/h (1 Bft) O 90 0 min 0,7 C 0,0 km/h (0 Bft)
01.04.2016 04:05 10,7 C 11,8 C 51 % 1007,5 hPa 0,0 mm 0,9 km/h (0 Bft) SW 225 0 min 1,0 C 7,7 km/h (2 Bft)
01.04.2016 04:10 11,1 C 12,0 C 51 % 1007,4 hPa 0,0 mm 2,1 km/h (1 Bft) S 180 0 min 1,4 C 0,0 km/h (0 Bft)
01.04.2016 04:15 12,9 C 12,7 C 48 % 1007,4 hPa 0,0 mm 4,8 km/h (1 Bft) N-NW 337 0 min 2,2 C 3,6 km/h (1 Bft)
01.04.2016 04:20 11,5 C 12,5 C 48 % 1007,4 hPa 0,0 mm 3,0 km/h (1 Bft) N-NW 337 0 min 0,9 C 0,0 km/h (0 Bft)
01.04.2016 04:25 10,2 C 11,7 C 49 % 1007,4 hPa 0,0 mm 0,0 km/h (0 Bft) N-NW 337 0 min -0,0 C 0,0 km/h (0 Bft)
01.04.2016 04:30 10,2 C 11,3 C 51 % 1007,8 hPa 0,0 mm 0,0 km/h (0 Bft) S-SO 157 0 min 0,5 C 0,0 km/h (0 Bft)
01.04.2016 04:35 9,4 C 10,6 C 52 % 1007,8 hPa 0,0 mm 0,6 km/h (0 Bft) NW 315 0 min 0,1 C 0,0 km/h (0 Bft)
01.04.2016 04:40 9,2 C 10,0 C 52 % 1007,8 hPa 0,0 mm 0,6 km/h (0 Bft) NW 315 0 min -0,1 C 0,0 km/h (0 Bft)
01.04.2016 04:45 10,1 C 9,9 C 54 % 1007,8 hPa 0,0 mm 0,0 km/h (0 Bft) NW 315 0 min 1,2 C 0,0 km/h (0 Bft)
01.04.2016 04:50 10,2 C 9,9 C 54 % 1007,9 hPa 0,0 mm 0,0 km/h (0 Bft) NW 315 0 min 1,3 C 0,0 km/h (0 Bft)
01.04.2016 04:55 9,3 C 9,3 C 54 % 1007,9 hPa 0,0 mm 0,0 km/h (0 Bft) NW 315 0 min 0,5 C 0,0 km/h (0 Bft)
01.04.2016 05:00 9,0 C 9,1 C 55 % 1007,9 hPa 0,0 mm 0,0 km/h (0 Bft) W-SW 247 0 min 0,5 C 0,0 km/h (0 Bft)
01.04.2016 05:05 8,7 C 9,2 C 55 % 1007,9 hPa 0,0 mm 0,3 km/h (0 Bft) S 180 0 min 0,2 C 3,6 km/h (1 Bft)
01.04.2016 05:10 8,6 C 9,3 C 56 % 1008,3 hPa 0,0 mm 0,3 km/h (0 Bft) SO 135 0 min 0,3 C 0,0 km/h (0 Bft)
01.04.2016 05:15 7,8 C 8,8 C 58 % 1008,3 hPa 0,0 mm 1,2 km/h (1 Bft) S 180 0 min 0,1 C 6,6 km/h (2 Bft)
01.04.2016 05:20 8,7 C 8,6 C 58 % 1008,3 hPa 0,0 mm 1,8 km/h (1 Bft) W 270 0 min 0,9 C 0,0 km/h (0 Bft)
01.04.2016 05:25 9,5 C 9,3 C 57 % 1008,3 hPa 0,0 mm 3,9 km/h (1 Bft) W 270 0 min 1,4 C 16,4 km/h (3 Bft)
01.04.2016 05:30 10,2 C 10,1 C 55 % 1009,1 hPa 0,0 mm 5,4 km/h (1 Bft) SW 225 0 min 1,6 C 12,8 km/h (3 Bft)
01.04.2016 05:35 11,2 C 11,0 C 54 % 1009,1 hPa 0,0 mm 8,0 km/h (2 Bft) W 270 0 min 2,2 C 14,9 km/h (3 Bft)
01.04.2016 05:40 11,7 C 11,4 C 53 % 1009,1 hPa 0,0 mm 11,0 km/h (2 Bft) W-SW 247 0 min 2,4 C 19,4 km/h (3 Bft)
01.04.2016 05:45 11,9 C 11,6 C 52 % 1009,1 hPa 0,0 mm 15,5 km/h (3 Bft) W 270 0 min 2,4 C 45,0 km/h (6 Bft)
01.04.2016 05:50 11,9 C 11,7 C 52 % 1009,5 hPa 0,0 mm 16,7 km/h (3 Bft) W 270 0 min 2,4 C 33,1 km/h (5 Bft)
01.04.2016 05:55 11,9 C 11,7 C 52 % 1009,5 hPa 0,0 mm 17,6 km/h (3 Bft) W 270 0 min 2,4 C 20,3 km/h (4 Bft)
01.04.2016 05:58 11,9 C 11,6 C 52 % 1009,5 hPa 0,0 mm 17,6 km/h (3 Bft) W 270 0 min 2,4 C 20,3 km/h (4 Bft)
01.04.2016 06:00 11,8 C 11,5 C 53 % 1009,5 hPa 0,0 mm 16,1 km/h (3 Bft) S-SW 202 0 min 2,5 C 10,4 km/h (2 Bft)
01.04.2016 06:05 11,9 C 11,6 C 53 % 1009,5 hPa 0,0 mm 16,1 km/h (3 Bft) W-SW 247 0 min 2,6 C 24,7 km/h (4 Bft)
01.04.2016 06:10 11,9 C 11,6 C 53 % 1009,9 hPa 0,0 mm 15,8 km/h (3 Bft) NW 315 0 min 2,6 C 14,0 km/h (3 Bft)
01.04.2016 06:15 11,9 C 11,7 C 54 % 1009,9 hPa 0,0 mm 14,3 km/h (3 Bft) W-SW 247 0 min 2,9 C 18,2 km/h (3 Bft)
01.04.2016 06:20 11,7 C 11,6 C 54 % 1009,9 hPa 0,0 mm 12,5 km/h (3 Bft) W-SW 247 0 min 2,7 C 8,6 km/h (2 Bft)
01.04.2016 06:25 11,6 C 11,5 C 55 % 1009,9 hPa 0,0 mm 11,3 km/h (2 Bft) W-SW 247 0 min 2,9 C 17,9 km/h (3 Bft)
01.04.2016 06:30 11,8 C 11,6 C 56 % 1010,1 hPa 0,0 mm 11,6 km/h (2 Bft) S-SO 157 0 min 3,3 C 8,9 km/h (2 Bft)
01.04.2016 06:35 11,7 C 11,5 C 56 % 1010,1 hPa 0,0 mm 12,2 km/h (2 Bft) W 270 0 min 3,2 C 22,4 km/h (4 Bft)
01.04.2016 06:40 11,7 C 11,5 C 56 % 1010,1 hPa 0,0 mm 11,3 km/h (2 Bft) W-SW 247 0 min 3,2 C 14,6 km/h (3 Bft)
01.04.2016 06:45 11,5 C 11,4 C 56 % 1010,1 hPa 0,0 mm 10,1 km/h (2 Bft) SO 135 0 min 3,0 C 5,4 km/h (1 Bft)
01.04.2016 06:50 11,4 C 11,3 C 57 % 1010,6 hPa 0,0 mm 9,5 km/h (2 Bft) SW 225 0 min 3,2 C 8,0 km/h (2 Bft)
01.04.2016 06:55 11,4 C 11,2 C 57 % 1010,6 hPa 0,0 mm 10,7 km/h (2 Bft) SW 225 0 min 3,2 C 26,8 km/h (4 Bft)
01.04.2016 07:00 11,4 C 11,2 C 58 % 1010,6 hPa 0,0 mm 11,6 km/h (2 Bft) W-SW 247 0 min 3,4 C 14,9 km/h (3 Bft)
01.04.2016 07:05 11,3 C 11,0 C 58 % 1010,6 hPa 0,0 mm 12,8 km/h (3 Bft) NW 315 0 min 3,3 C 17,9 km/h (3 Bft)
01.04.2016 07:10 11,1 C 10,9 C 58 % 1010,9 hPa 0,0 mm 11,0 km/h (2 Bft) W-SW 247 0 min 3,2 C 8,3 km/h (2 Bft)
01.04.2016 07:15 11,0 C 10,9 C 59 % 1010,9 hPa 0,0 mm 9,2 km/h (2 Bft) W-SW 247 0 min 3,3 C 14,9 km/h (3 Bft)
01.04.2016 07:20 10,9 C 10,8 C 59 % 1010,9 hPa 0,0 mm 8,3 km/h (2 Bft) W-NW 292 0 min 3,2 C 3,0 km/h (1 Bft)
01.04.2016 07:25 10,7 C 10,7 C 59 % 1010,9 hPa 0,0 mm 7,2 km/h (2 Bft) SW 225 0 min 3,0 C 7,5 km/h (2 Bft)
01.04.2016 07:30 10,6 C 10,6 C 59 % 1011,6 hPa 0,0 mm 6,0 km/h (2 Bft) W 270 0 min 2,9 C 11,3 km/h (2 Bft)
01.04.2016 07:35 10,4 C 10,5 C 59 % 1011,6 hPa 0,0 mm 4,8 km/h (1 Bft) W 270 0 min 2,7 C 6,3 km/h (2 Bft)
01.04.2016 07:40 10,6 C 10,6 C 61 % 1011,6 hPa 0,0 mm 6,6 km/h (2 Bft) W-NW 292 0 min 3,4 C 17,0 km/h (3 Bft)
01.04.2016 07:45 10,7 C 10,7 C 61 % 1011,6 hPa 0,0 mm 8,3 km/h (2 Bft) W 270 0 min 3,5 C 13,7 km/h (3 Bft)
01.04.2016 07:50 10,7 C 10,9 C 61 % 1011,9 hPa 0,0 mm 8,0 km/h (2 Bft) W-NW 292 0 min 3,5 C 6,6 km/h (2 Bft)
01.04.2016 07:55 10,7 C 10,9 C 62 % 1011,9 hPa 0,0 mm 6,6 km/h (2 Bft) W-NW 292 0 min 3,7 C 26,2 km/h (4 Bft)
01.04.2016 08:00 10,7 C 11,0 C 62 % 1011,9 hPa 0,0 mm 6,3 km/h (2 Bft) SW 225 0 min 3,7 C 8,3 km/h (2 Bft)
01.04.2016 08:05 10,8 C 11,1 C 63 % 1011,9 hPa 0,0 mm 8,3 km/h (2 Bft) NW 315 0 min 4,0 C 11,0 km/h (2 Bft)
01.04.2016 08:10 10,9 C 11,2 C 63 % 1012,3 hPa 0,0 mm 9,2 km/h (2 Bft) S-SW 202 0 min 4,1 C 10,7 km/h (2 Bft)
01.04.2016 08:15 10,8 C 11,1 C 63 % 1012,3 hPa 0,0 mm 9,5 km/h (2 Bft) NW 315 0 min 4,0 C 7,7 km/h (2 Bft)
01.04.2016 08:20 10,8 C 10,8 C 64 % 1012,3 hPa 0,0 mm 10,4 km/h (2 Bft) W-NW 292 0 min 4,3 C 16,7 km/h (3 Bft)
01.04.2016 08:25 10,5 C 10,4 C 66 % 1012,3 hPa 0,0 mm 12,2 km/h (2 Bft) W-NW 292 0 min 4,4 C 11,9 km/h (2 Bft)
01.04.2016 08:30 10,6 C 10,9 C 62 % 1012,8 hPa 0,0 mm 11,3 km/h (2 Bft) W-NW 292 0 min 3,6 C 7,2 km/h (2 Bft)
01.04.2016 08:35 10,5 C 11,3 C 63 % 1012,8 hPa 0,0 mm 9,5 km/h (2 Bft) W 270 0 min 3,8 C 8,6 km/h (2 Bft)
01.04.2016 08:40 10,3 C 11,0 C 64 % 1012,8 hPa 0,0 mm 9,2 km/h (2 Bft) NW 315 0 min 3,8 C 9,2 km/h (2 Bft)
01.04.2016 08:45 10,1 C 10,3 C 65 % 1012,8 hPa 0,0 mm 10,4 km/h (2 Bft) NW 315 0 min 3,8 C 11,6 km/h (2 Bft)
01.04.2016 08:50 10,1 C 10,2 C 65 % 1013,4 hPa 0,0 mm 10,1 km/h (2 Bft) W-NW 292 0 min 3,8 C 15,8 km/h (3 Bft)
01.04.2016 08:55 10,0 C 10,3 C 66 % 1013,4 hPa 0,0 mm 8,0 km/h (2 Bft) NW 315 0 min 3,9 C 7,2 km/h (2 Bft)
01.04.2016 08:58 9,9 C 10,2 C 67 % 1013,4 hPa 0,0 mm 7,7 km/h (2 Bft) NW 315 0 min 4,1 C 4,8 km/h (1 Bft)
01.04.2016 08:59 9,9 C 10,2 C 67 % 1013,4 hPa 0,0 mm 7,7 km/h (2 Bft) NW 315 0 min 4,1 C 4,8 km/h (1 Bft)
01.04.2016 09:00 9,9 C 10,2 C 67 % 1013,4 hPa 0,0 mm 7,7 km/h (2 Bft) NW 315 0 min 4,1 C 4,8 km/h (1 Bft)
01.04.2016 09:05 9,9 C 10,1 C 67 % 1013,4 hPa 0,0 mm 6,9 km/h (2 Bft) W 270 0 min 4,1 C 5,7 km/h (1 Bft)
01.04.2016 09:10 9,9 C 10,1 C 67 % 1013,6 hPa 0,0 mm 6,0 km/h (2 Bft) W-NW 292 0 min 4,1 C 0,0 km/h (0 Bft)
01.04.2016 09:15 9,9 C 10,2 C 68 % 1013,6 hPa 0,0 mm 3,6 km/h (1 Bft) W 270 0 min 4,3 C 4,5 km/h (1 Bft)
01.04.2016 09:20 9,9 C 10,2 C 68 % 1013,6 hPa 0,0 mm 2,4 km/h (1 Bft) S-SW 202 0 min 4,3 C 5,7 km/h (1 Bft)
01.04.2016 09:25 9,9 C 10,3 C 68 % 1013,6 hPa 0,0 mm 2,4 km/h (1 Bft) W 270 0 min 4,3 C 0,0 km/h (0 Bft)
01.04.2016 09:30 10,0 C 10,4 C 68 % 1013,8 hPa 0,0 mm 1,5 km/h (1 Bft) W 270 0 min 4,4 C 0,0 km/h (0 Bft)
01.04.2016 09:35 10,1 C 10,5 C 68 % 1013,8 hPa 0,0 mm 2,4 km/h (1 Bft) W-NW 292 0 min 4,5 C 3,9 km/h (1 Bft)
01.04.2016 09:40 10,2 C 10,6 C 67 % 1013,8 hPa 0,0 mm 2,7 km/h (1 Bft) W-NW 292 0 min 4,4 C 3,9 km/h (1 Bft)
01.04.2016 09:45 10,3 C 10,8 C 67 % 1013,8 hPa 0,0 mm 2,4 km/h (1 Bft) NW 315 0 min 4,4 C 3,6 km/h (1 Bft)
01.04.2016 09:50 10,3 C 10,8 C 67 % 1014,2 hPa 0,0 mm 2,4 km/h (1 Bft) W 270 0 min 4,4 C 0,0 km/h (0 Bft)
01.04.2016 09:55 10,4 C 11,0 C 67 % 1014,2 hPa 0,0 mm 1,5 km/h (1 Bft) W-SW 247 0 min 4,5 C 6,3 km/h (2 Bft)
01.04.2016 10:00 10,5 C 11,1 C 67 % 1014,2 hPa 0,0 mm 1,5 km/h (1 Bft) NW 315 0 min 4,6 C 3,3 km/h (1 Bft)
01.04.2016 10:05 10,5 C 11,2 C 67 % 1014,2 hPa 0,0 mm 3,0 km/h (1 Bft) W 270 0 min 4,6 C 3,9 km/h (1 Bft)
01.04.2016 10:10 10,6 C 11,2 C 67 % 1014,0 hPa 0,0 mm 3,9 km/h (1 Bft) O-SO 112 0 min 4,7 C 7,7 km/h (2 Bft)
01.04.2016 10:15 10,6 C 11,1 C 67 % 1014,0 hPa 0,0 mm 4,8 km/h (1 Bft) SW 225 0 min 4,7 C 5,4 km/h (1 Bft)
01.04.2016 10:20 10,6 C 11,1 C 67 % 1014,0 hPa 0,0 mm 5,4 km/h (1 Bft) W 270 0 min 4,7 C 5,7 km/h (1 Bft)
01.04.2016 10:25 10,6 C 11,1 C 67 % 1014,0 hPa 0,0 mm 5,1 km/h (1 Bft) NW 315 0 min 4,7 C 4,8 km/h (1 Bft)
01.04.2016 10:30 10,7 C 11,3 C 67 % 1014,6 hPa 0,0 mm 4,8 km/h (1 Bft) W 270 0 min 4,8 C 8,3 km/h (2 Bft)
01.04.2016 10:35 10,9 C 11,6 C 67 % 1014,6 hPa 0,0 mm 5,1 km/h (1 Bft) W-NW 292 0 min 5,0 C 5,4 km/h (1 Bft)
01.04.2016 10:40 11,0 C 11,8 C 67 % 1014,6 hPa 0,0 mm 6,9 km/h (2 Bft) W-NW 292 0 min 5,1 C 6,9 km/h (2 Bft)
01.04.2016 10:45 11,0 C 11,9 C 67 % 1014,6 hPa 0,0 mm 6,9 km/h (2 Bft) W-SW 247 0 min 5,1 C 7,2 km/h (2 Bft)
01.04.2016 10:50 11,1 C 12,0 C 67 % 1014,8 hPa 0,0 mm 6,9 km/h (2 Bft) W 270 0 min 5,2 C 8,0 km/h (2 Bft)
01.04.2016 10:55 11,1 C 12,2 C 67 % 1014,8 hPa 0,0 mm 7,2 km/h (2 Bft) NW 315 0 min 5,2 C 0,0 km/h (0 Bft)
01.04.2016 11:00 11,3 C 12,5 C 66 % 1014,8 hPa 0,0 mm 6,0 km/h (2 Bft) W-SW 247 0 min 5,2 C 7,7 km/h (2 Bft)
01.04.2016 11:05 11,3 C 12,8 C 66 % 1014,8 hPa 0,0 mm 4,5 km/h (1 Bft) W 270 0 min 5,2 C 8,6 km/h (2 Bft)
01.04.2016 11:10 11,4 C 13,1 C 66 % 1014,9 hPa 0,0 mm 5,1 km/h (1 Bft) NW 315 0 min 5,3 C 7,2 km/h (2 Bft)
01.04.2016 11:15 11,6 C 13,4 C 66 % 1014,9 hPa 0,0 mm 5,7 km/h (1 Bft) W 270 0 min 5,5 C 8,9 km/h (2 Bft)
01.04.2016 11:20 11,7 C 13,7 C 66 % 1014,9 hPa 0,0 mm 6,3 km/h (2 Bft) W 270 0 min 5,6 C 11,9 km/h (2 Bft)
01.04.2016 11:25 11,8 C 13,8 C 66 % 1014,9 hPa 0,0 mm 7,7 km/h (2 Bft) W-NW 292 0 min 5,7 C 3,3 km/h (1 Bft)
01.04.2016 11:30 12,0 C 14,4 C 65 % 1015,1 hPa 0,0 mm 6,6 km/h (2 Bft) NW 315 0 min 5,6 C 9,2 km/h (2 Bft)
01.04.2016 11:35 12,2 C 14,9 C 65 % 1015,1 hPa 0,0 mm 6,9 km/h (2 Bft) W 270 0 min 5,8 C 8,6 km/h (2 Bft)
01.04.2016 11:40 12,3 C 15,1 C 65 % 1015,1 hPa 0,0 mm 8,0 km/h (2 Bft) W 270 0 min 5,9 C 7,5 km/h (2 Bft)
01.04.2016 11:45 12,6 C 15,8 C 65 % 1015,1 hPa 0,0 mm 6,3 km/h (2 Bft) W 270 0 min 6,2 C 4,2 km/h (1 Bft)
01.04.2016 11:50 12,8 C 16,1 C 64 % 1015,4 hPa 0,0 mm 7,2 km/h (2 Bft) W-NW 292 0 min 6,2 C 7,5 km/h (2 Bft)
01.04.2016 11:55 12,9 C 16,1 C 64 % 1015,4 hPa 0,0 mm 10,4 km/h (2 Bft) W 270 5 min 6,3 C 14,6 km/h (3 Bft)
01.04.2016 11:58 12,9 C 15,8 C 64 % 1015,4 hPa 0,0 mm 10,4 km/h (2 Bft) W 270 0 min 6,3 C 8,6 km/h (2 Bft)
01.04.2016 12:00 12,9 C 15,8 C 64 % 1015,4 hPa 0,0 mm 10,4 km/h (2 Bft) W 270 0 min 6,3 C 8,6 km/h (2 Bft)
01.04.2016 12:05 13,0 C 16,0 C 63 % 1015,4 hPa 0,0 mm 6,9 km/h (2 Bft) W-SW 247 0 min 6,1 C 10,1 km/h (2 Bft)
01.04.2016 12:10 13,2 C 15,9 C 63 % 1015,5 hPa 0,0 mm 6,3 km/h (2 Bft) NW 315 0 min 6,3 C 14,6 km/h (3 Bft)
01.04.2016 12:15 13,1 C 16,0 C 62 % 1015,5 hPa 0,0 mm 7,7 km/h (2 Bft) W-NW 292 0 min 6,0 C 4,2 km/h (1 Bft)
01.04.2016 12:20 13,3 C 16,5 C 63 % 1015,5 hPa 0,0 mm 8,0 km/h (2 Bft) W 270 0 min 6,4 C 14,9 km/h (3 Bft)
01.04.2016 12:25 13,4 C 16,9 C 62 % 1015,5 hPa 0,0 mm 6,6 km/h (2 Bft) W 270 0 min 6,3 C 8,6 km/h (2 Bft)
01.04.2016 12:30 13,5 C 16,9 C 62 % 1015,9 hPa 0,0 mm 6,3 km/h (2 Bft) W 270 0 min 6,4 C 7,5 km/h (2 Bft)
01.04.2016 12:35 13,8 C 16,9 C 62 % 1015,9 hPa 0,0 mm 7,2 km/h (2 Bft) NW 315 0 min 6,6 C 15,2 km/h (3 Bft)
01.04.2016 12:40 14,1 C 17,2 C 61 % 1015,9 hPa 0,0 mm 8,3 km/h (2 Bft) W-NW 292 0 min 6,7 C 8,9 km/h (2 Bft)
01.04.2016 12:45 14,3 C 17,9 C 61 % 1015,9 hPa 0,0 mm 8,3 km/h (2 Bft) N-NW 337 0 min 6,9 C 8,9 km/h (2 Bft)
01.04.2016 12:50 14,2 C 18,0 C 61 % 1015,9 hPa 0,0 mm 8,0 km/h (2 Bft) N-NW 337 0 min 6,8 C 10,7 km/h (2 Bft)
01.04.2016 12:55 14,2 C 17,5 C 60 % 1015,9 hPa 0,0 mm 8,0 km/h (2 Bft) N-NW 337 0 min 6,5 C 13,1 km/h (3 Bft)
01.04.2016 13:00 14,3 C 17,1 C 61 % 1015,9 hPa 0,0 mm 7,7 km/h (2 Bft) W-NW 292 0 min 6,9 C 8,9 km/h (2 Bft)
01.04.2016 13:05 14,2 C 16,5 C 60 % 1015,9 hPa 0,0 mm 8,0 km/h (2 Bft) NW 315 0 min 6,5 C 9,5 km/h (2 Bft)
01.04.2016 13:10 14,1 C 16,4 C 60 % 1015,9 hPa 0,0 mm 7,2 km/h (2 Bft) N 360 0 min 6,5 C 3,9 km/h (1 Bft)
01.04.2016 13:15 14,2 C 17,0 C 60 % 1015,9 hPa 0,0 mm 4,2 km/h (1 Bft) N 360 0 min 6,5 C 6,3 km/h (2 Bft)
01.04.2016 13:20 14,4 C 17,1 C 60 % 1015,9 hPa 0,0 mm 3,6 km/h (1 Bft) N-NO 22 0 min 6,7 C 8,0 km/h (2 Bft)
01.04.2016 13:25 14,1 C 16,7 C 59 % 1015,9 hPa 0,0 mm 6,0 km/h (2 Bft) NW 315 0 min 6,2 C 3,9 km/h (1 Bft)
01.04.2016 13:30 13,9 C 16,4 C 60 % 1016,2 hPa 0,0 mm 7,5 km/h (2 Bft) N-NW 337 0 min 6,3 C 10,7 km/h (2 Bft)
01.04.2016 13:35 13,7 C 15,4 C 60 % 1016,2 hPa 0,0 mm 8,9 km/h (2 Bft) N-NW 337 0 min 6,1 C 15,2 km/h (3 Bft)
01.04.2016 13:40 13,6 C 14,8 C 61 % 1016,2 hPa 0,0 mm 10,4 km/h (2 Bft) N-NW 337 0 min 6,2 C 11,9 km/h (2 Bft)
01.04.2016 13:45 13,2 C 13,9 C 61 % 1016,2 hPa 0,0 mm 10,1 km/h (2 Bft) NW 315 0 min 5,8 C 13,7 km/h (3 Bft)
01.04.2016 13:50 13,0 C 13,5 C 61 % 1016,2 hPa 0,0 mm 10,1 km/h (2 Bft) O 90 0 min 5,7 C 11,9 km/h (2 Bft)
01.04.2016 13:55 12,9 C 13,2 C 63 % 1016,2 hPa 0,0 mm 9,8 km/h (2 Bft) N 360 0 min 6,0 C 16,7 km/h (3 Bft)
01.04.2016 14:00 12,8 C 12,9 C 63 % 1016,2 hPa 0,0 mm 9,5 km/h (2 Bft) N-NW 337 0 min 5,9 C 7,2 km/h (2 Bft)
01.04.2016 14:05 12,6 C 12,7 C 64 % 1016,2 hPa 0,0 mm 8,6 km/h (2 Bft) N-NO 22 0 min 6,0 C 11,3 km/h (2 Bft)
01.04.2016 14:10 12,4 C 12,5 C 67 % 1016,2 hPa 0,0 mm 9,2 km/h (2 Bft) N-NO 22 0 min 6,4 C 9,2 km/h (2 Bft)
01.04.2016 14:15 12,0 C 12,2 C 69 % 1016,2 hPa 0,0 mm 8,0 km/h (2 Bft) N-NW 337 0 min 6,5 C 6,3 km/h (2 Bft)
01.04.2016 14:20 11,8 C 12,0 C 71 % 1016,2 hPa 0,0 mm 7,7 km/h (2 Bft) N-NW 337 0 min 6,7 C 20,3 km/h (4 Bft)
01.04.2016 14:25 11,3 C 11,4 C 73 % 1016,2 hPa 0,0 mm 9,5 km/h (2 Bft) N-NO 22 0 min 6,6 C 8,3 km/h (2 Bft)
01.04.2016 14:30 11,1 C 11,0 C 74 % 1016,4 hPa 0,0 mm 11,3 km/h (2 Bft) N-NO 22 0 min 6,6 C 19,1 km/h (3 Bft)
01.04.2016 14:35 10,7 C 10,6 C 75 % 1016,4 hPa 0,0 mm 10,4 km/h (2 Bft) NW 315 0 min 6,5 C 17,0 km/h (3 Bft)
01.04.2016 14:40 10,6 C 10,5 C 75 % 1016,4 hPa 0,0 mm 10,1 km/h (2 Bft) N 360 0 min 6,4 C 8,3 km/h (2 Bft)
01.04.2016 14:45 10,3 C 10,1 C 75 % 1016,4 hPa 0,0 mm 10,1 km/h (2 Bft) W-NW 292 0 min 6,1 C 7,7 km/h (2 Bft)
01.04.2016 14:50 10,0 C 9,7 C 76 % 1016,7 hPa 0,0 mm 12,5 km/h (3 Bft) N-NW 337 0 min 6,0 C 30,7 km/h (5 Bft)
01.04.2016 14:55 9,3 C 9,1 C 78 % 1016,7 hPa 0,0 mm 15,2 km/h (3 Bft) N-NW 337 0 min 5,7 C 20,3 km/h (4 Bft)
01.04.2016 14:58 9,2 C 8,0 C 79 % 1016,7 hPa 0,0 mm 15,5 km/h (3 Bft) N-NW 337 0 min 5,8 C 18,2 km/h (3 Bft)
01.04.2016 15:01 9,2 C 8,7 C 79 % 1016,7 hPa 0,0 mm 15,5 km/h (3 Bft) N-NW 337 0 min 5,8 C 18,2 km/h (3 Bft)
01.04.2016 15:05 8,9 C 8,6 C 79 % 1016,7 hPa 0,0 mm 11,3 km/h (2 Bft) N-NW 337 0 min 5,5 C 11,6 km/h (2 Bft)
01.04.2016 15:10 8,9 C 8,6 C 80 % 1016,6 hPa 0,0 mm 10,4 km/h (2 Bft) NW 315 0 min 5,6 C 15,8 km/h (3 Bft)
01.04.2016 15:15 8,7 C 8,6 C 76 % 1016,6 hPa 0,0 mm 9,2 km/h (2 Bft) NW 315 0 min 4,7 C 5,4 km/h (1 Bft)
01.04.2016 15:20 8,6 C 8,6 C 76 % 1016,6 hPa 0,0 mm 9,2 km/h (2 Bft) NW 315 0 min 4,6 C 8,9 km/h (2 Bft)
01.04.2016 15:25 8,5 C 8,7 C 76 % 1016,6 hPa 0,0 mm 6,9 km/h (2 Bft) N 360 0 min 4,5 C 8,0 km/h (2 Bft)
01.04.2016 15:30 8,5 C 8,7 C 76 % 1016,8 hPa 0,0 mm 5,7 km/h (1 Bft) NW 315 0 min 4,5 C 5,7 km/h (1 Bft)
01.04.2016 15:35 8,4 C 8,5 C 77 % 1016,8 hPa 0,0 mm 5,7 km/h (1 Bft) NW 315 0 min 4,6 C 3,3 km/h (1 Bft)
01.04.2016 15:40 8,4 C 8,6 C 77 % 1016,8 hPa 0,0 mm 6,0 km/h (2 Bft) NW 315 0 min 4,6 C 6,6 km/h (2 Bft)
01.04.2016 15:45 8,3 C 8,6 C 77 % 1016,8 hPa 0,0 mm 5,7 km/h (1 Bft) N-NW 337 0 min 4,5 C 10,4 km/h (2 Bft)
01.04.2016 15:50 8,3 C 8,5 C 77 % 1016,6 hPa 0,0 mm 6,3 km/h (2 Bft) NO 45 0 min 4,5 C 10,4 km/h (2 Bft)
01.04.2016 15:55 8,1 C 8,3 C 78 % 1016,6 hPa 0,0 mm 3,9 km/h (1 Bft) NO 45 0 min 4,5 C 4,5 km/h (1 Bft)
01.04.2016 16:00 8,0 C 8,2 C 78 % 1016,6 hPa 0,0 mm 3,6 km/h (1 Bft) NO 45 0 min 4,4 C 4,5 km/h (1 Bft)
01.04.2016 16:05 7,8 C 7,9 C 78 % 1016,6 hPa 0,0 mm 6,3 km/h (2 Bft) NW 315 0 min 4,2 C 6,3 km/h (2 Bft)
01.04.2016 16:10 7,7 C 7,7 C 78 % 1017,0 hPa 0,0 mm 6,9 km/h (2 Bft) N-NO 22 0 min 4,1 C 6,0 km/h (2 Bft)
01.04.2016 16:15 7,5 C 7,5 C 78 % 1017,0 hPa 0,0 mm 6,9 km/h (2 Bft) N-NW 337 0 min 3,9 C 10,1 km/h (2 Bft)
01.04.2016 16:20 7,5 C 7,4 C 82 % 1017,0 hPa 0,0 mm 7,2 km/h (2 Bft) O-NO 67 0 min 4,6 C 6,6 km/h (2 Bft)
01.04.2016 16:25 7,4 C 7,4 C 79 % 1017,0 hPa 0,0 mm 6,6 km/h (2 Bft) O-NO 67 0 min 4,0 C 13,1 km/h (3 Bft)
01.04.2016 16:30 7,2 C 7,1 C 84 % 1017,0 hPa 0,0 mm 7,2 km/h (2 Bft) O-NO 67 0 min 4,7 C 12,5 km/h (3 Bft)
01.04.2016 16:35 7,1 C 6,8 C 85 % 1017,0 hPa 0,0 mm 8,3 km/h (2 Bft) NO 45 0 min 4,8 C 7,7 km/h (2 Bft)
01.04.2016 16:40 7,0 C 6,7 C 86 % 1017,0 hPa 0,0 mm 9,2 km/h (2 Bft) O-NO 67 0 min 4,8 C 8,3 km/h (2 Bft)
01.04.2016 16:45 6,9 C 6,7 C 80 % 1017,0 hPa 0,0 mm 9,2 km/h (2 Bft) SW 225 0 min 3,7 C 8,9 km/h (2 Bft)
01.04.2016 16:50 6,9 C 6,6 C 87 % 1017,3 hPa 0,0 mm 9,2 km/h (2 Bft) NO 45 0 min 4,9 C 7,7 km/h (2 Bft)
01.04.2016 16:55 6,9 C 6,7 C 87 % 1017,3 hPa 0,0 mm 8,0 km/h (2 Bft) NO 45 0 min 4,9 C 0,0 km/h (0 Bft)
01.04.2016 17:00 6,9 C 6,9 C 81 % 1017,3 hPa 0,0 mm 6,0 km/h (2 Bft) O-NO 67 0 min 3,9 C 9,8 km/h (2 Bft)
01.04.2016 17:05 6,8 C 6,8 C 81 % 1017,3 hPa 0,0 mm 4,5 km/h (1 Bft) NO 45 0 min 3,8 C 3,9 km/h (1 Bft)
01.04.2016 17:10 6,8 C 6,7 C 81 % 1017,3 hPa 0,0 mm 6,3 km/h (2 Bft) O-NO 67 0 min 3,8 C 11,3 km/h (2 Bft)
01.04.2016 17:15 6,8 C 6,7 C 81 % 1017,3 hPa 0,0 mm 6,0 km/h (2 Bft) O-NO 67 0 min 3,8 C 8,6 km/h (2 Bft)
01.04.2016 17:20 6,8 C 6,7 C 81 % 1017,3 hPa 0,0 mm 5,4 km/h (1 Bft) S-SO 157 0 min 3,8 C 0,0 km/h (0 Bft)
01.04.2016 17:25 6,7 C 6,7 C 81 % 1017,3 hPa 0,0 mm 3,3 km/h (1 Bft) O-NO 67 0 min 3,7 C 4,2 km/h (1 Bft)
01.04.2016 17:30 6,7 C 6,7 C 81 % 1017,1 hPa 0,0 mm 3,0 km/h (1 Bft) NO 45 0 min 3,7 C 7,2 km/h (2 Bft)
01.04.2016 17:35 6,7 C 6,7 C 81 % 1017,1 hPa 0,0 mm 2,1 km/h (1 Bft) O 90 0 min 3,7 C 0,0 km/h (0 Bft)
01.04.2016 17:40 6,8 C 6,8 C 81 % 1017,1 hPa 0,0 mm 1,2 km/h (1 Bft) NW 315 0 min 3,8 C 3,3 km/h (1 Bft)
01.04.2016 17:45 6,8 C 6,8 C 81 % 1017,1 hPa 0,0 mm 1,5 km/h (1 Bft) N-NW 337 0 min 3,8 C 5,4 km/h (1 Bft)
01.04.2016 17:50 6,8 C 6,8 C 81 % 1016,9 hPa 0,0 mm 2,1 km/h (1 Bft) N-NO 22 0 min 3,8 C 5,4 km/h (1 Bft)
01.04.2016 17:55 6,8 C 6,7 C 81 % 1016,9 hPa 0,0 mm 2,7 km/h (1 Bft) O-NO 67 0 min 3,8 C 4,2 km/h (1 Bft)
01.04.2016 18:00 6,8 C 6,7 C 86 % 1016,9 hPa 0,0 mm 3,3 km/h (1 Bft) N-NO 22 0 min 4,6 C 5,1 km/h (1 Bft)
01.04.2016 18:02 6,8 C 6,7 C 86 % 1016,9 hPa 0,0 mm 3,3 km/h (1 Bft) N-NO 22 0 min 4,6 C 5,1 km/h (1 Bft)
01.04.2016 18:05 6,7 C 6,7 C 81 % 1016,9 hPa 0,0 mm 3,0 km/h (1 Bft) O 90 0 min 3,7 C 4,5 km/h (1 Bft)
01.04.2016 18:10 6,7 C 6,7 C 81 % 1017,2 hPa 0,0 mm 1,8 km/h (1 Bft) N 360 0 min 3,7 C 0,0 km/h (0 Bft)
01.04.2016 18:15 6,7 C 6,6 C 86 % 1017,2 hPa 0,0 mm 1,2 km/h (1 Bft) O 90 0 min 4,5 C 3,9 km/h (1 Bft)
01.04.2016 18:20 6,7 C 6,6 C 86 % 1017,2 hPa 0,0 mm 0,9 km/h (0 Bft) O-SO 112 0 min 4,5 C 0,0 km/h (0 Bft)
01.04.2016 18:25 6,6 C 6,7 C 81 % 1017,2 hPa 0,0 mm 0,6 km/h (0 Bft) SO 135 0 min 3,6 C 0,0 km/h (0 Bft)
01.04.2016 18:30 6,6 C 6,7 C 81 % 1017,2 hPa 0,0 mm 0,3 km/h (0 Bft) NO 45 0 min 3,6 C 0,0 km/h (0 Bft)
01.04.2016 18:35 6,6 C 6,6 C 81 % 1017,2 hPa 0,0 mm 0,3 km/h (0 Bft) N-NW 337 0 min 3,6 C 0,0 km/h (0 Bft)
01.04.2016 18:40 6,6 C 6,7 C 82 % 1017,2 hPa 0,0 mm 1,5 km/h (1 Bft) O-NO 67 0 min 3,8 C 4,8 km/h (1 Bft)
01.04.2016 18:45 6,6 C 6,6 C 82 % 1017,2 hPa 0,0 mm 2,4 km/h (1 Bft) O-NO 67 0 min 3,8 C 0,0 km/h (0 Bft)
01.04.2016 18:50 6,6 C 6,6 C 82 % 1017,4 hPa 0,0 mm 1,5 km/h (1 Bft) O-NO 67 0 min 3,8 C 0,0 km/h (0 Bft)
01.04.2016 18:55 6,6 C 6,6 C 82 % 1017,4 hPa 0,0 mm 0,3 km/h (0 Bft) N-NO 22 0 min 3,8 C 0,0 km/h (0 Bft)
01.04.2016 19:00 6,6 C 6,6 C 82 % 1017,4 hPa 0,0 mm 1,5 km/h (1 Bft) O-SO 112 0 min 3,8 C 5,1 km/h (1 Bft)
01.04.2016 19:05 6,6 C 6,6 C 82 % 1017,4 hPa 0,0 mm 2,7 km/h (1 Bft) O-NO 67 0 min 3,8 C 4,2 km/h (1 Bft)
01.04.2016 19:10 6,6 C 6,6 C 82 % 1017,5 hPa 0,0 mm 2,1 km/h (1 Bft) N-NO 22 0 min 3,8 C 0,0 km/h (0 Bft)
01.04.2016 19:15 6,6 C 6,6 C 82 % 1017,5 hPa 0,0 mm 1,5 km/h (1 Bft) O-NO 67 0 min 3,8 C 0,0 km/h (0 Bft)
01.04.2016 19:20 6,6 C 6,6 C 83 % 1017,5 hPa 0,0 mm 2,1 km/h (1 Bft) N-NO 22 0 min 3,9 C 0,0 km/h (0 Bft)
01.04.2016 19:25 6,6 C 6,5 C 88 % 1017,5 hPa 0,0 mm 3,3 km/h (1 Bft) NO 45 0 min 4,8 C 8,6 km/h (2 Bft)
01.04.2016 19:30 6,6 C 6,5 C 89 % 1017,7 hPa 0,0 mm 4,5 km/h (1 Bft) NO 45 0 min 4,9 C 9,8 km/h (2 Bft)
01.04.2016 19:35 6,6 C 6,6 C 83 % 1017,7 hPa 0,0 mm 4,2 km/h (1 Bft) NO 45 0 min 3,9 C 11,0 km/h (2 Bft)
01.04.2016 19:40 6,6 C 6,5 C 89 % 1017,7 hPa 0,0 mm 3,6 km/h (1 Bft) NO 45 0 min 4,9 C 0,0 km/h (0 Bft)
01.04.2016 19:45 6,6 C 6,6 C 83 % 1017,7 hPa 0,0 mm 4,2 km/h (1 Bft) NO 45 0 min 3,9 C 5,7 km/h (1 Bft)
01.04.2016 19:50 6,6 C 6,5 C 89 % 1017,8 hPa 0,0 mm 3,6 km/h (1 Bft) NO 45 0 min 4,9 C 6,3 km/h (2 Bft)
01.04.2016 19:55 6,6 C 6,5 C 89 % 1017,8 hPa 0,0 mm 5,4 km/h (1 Bft) O-NO 67 0 min 4,9 C 8,9 km/h (2 Bft)
01.04.2016 20:00 6,6 C 6,5 C 89 % 1017,8 hPa 0,0 mm 6,3 km/h (2 Bft) N-NO 22 0 min 4,9 C 6,3 km/h (2 Bft)
01.04.2016 20:05 6,5 C 6,3 C 89 % 1017,8 hPa 0,0 mm 7,7 km/h (2 Bft) NO 45 0 min 4,8 C 9,5 km/h (2 Bft)
01.04.2016 20:10 6,5 C 6,4 C 83 % 1017,9 hPa 0,0 mm 6,9 km/h (2 Bft) NO 45 0 min 3,8 C 10,4 km/h (2 Bft)
01.04.2016 20:15 6,5 C 6,4 C 89 % 1017,9 hPa 0,0 mm 5,1 km/h (1 Bft) N-NO 22 0 min 4,8 C 6,3 km/h (2 Bft)
01.04.2016 20:20 6,5 C 6,4 C 89 % 1017,9 hPa 0,0 mm 3,9 km/h (1 Bft) O-NO 67 0 min 4,8 C 0,0 km/h (0 Bft)
01.04.2016 20:25 6,5 C 6,4 C 89 % 1017,9 hPa 0,0 mm 2,7 km/h (1 Bft) O-NO 67 0 min 4,8 C 4,2 km/h (1 Bft)
01.04.2016 20:30 6,5 C 6,4 C 89 % 1018,1 hPa 0,0 mm 2,7 km/h (1 Bft) NO 45 0 min 4,8 C 3,9 km/h (1 Bft)
01.04.2016 20:35 6,5 C 6,4 C 89 % 1018,1 hPa 0,0 mm 4,8 km/h (1 Bft) NO 45 0 min 4,8 C 11,6 km/h (2 Bft)
01.04.2016 20:40 6,5 C 6,4 C 89 % 1018,1 hPa 0,0 mm 4,5 km/h (1 Bft) N-NO 22 0 min 4,8 C 8,6 km/h (2 Bft)
01.04.2016 20:45 6,5 C 6,4 C 90 % 1018,1 hPa 0,0 mm 5,4 km/h (1 Bft) NO 45 0 min 5,0 C 15,2 km/h (3 Bft)
01.04.2016 20:50 6,4 C 6,3 C 90 % 1018,1 hPa 0,0 mm 5,7 km/h (1 Bft) NO 45 0 min 4,9 C 9,8 km/h (2 Bft)
01.04.2016 20:55 6,4 C 6,3 C 90 % 1018,1 hPa 0,0 mm 4,5 km/h (1 Bft) N-NO 22 0 min 4,9 C 5,4 km/h (1 Bft)
01.04.2016 21:00 6,4 C 6,3 C 90 % 1018,1 hPa 0,0 mm 4,2 km/h (1 Bft) NO 45 0 min 4,9 C 8,3 km/h (2 Bft)
01.04.2016 21:03 6,4 C 6,3 C 90 % 1018,1 hPa 0,0 mm 4,2 km/h (1 Bft) NO 45 0 min 4,9 C 8,3 km/h (2 Bft)
01.04.2016 21:05 6,4 C 6,3 C 90 % 1018,1 hPa 0,0 mm 5,7 km/h (1 Bft) O 90 0 min 4,9 C 10,7 km/h (2 Bft)
01.04.2016 21:10 6,4 C 6,3 C 90 % 1018,1 hPa 0,0 mm 5,7 km/h (1 Bft) NO 45 0 min 4,9 C 4,8 km/h (1 Bft)
01.04.2016 21:15 6,4 C 6,3 C 90 % 1018,1 hPa 0,0 mm 6,0 km/h (2 Bft) O-NO 67 0 min 4,9 C 5,7 km/h (1 Bft)
01.04.2016 21:20 6,4 C 6,3 C 90 % 1018,1 hPa 0,0 mm 4,8 km/h (1 Bft) N-NO 22 0 min 4,9 C 9,2 km/h (2 Bft)
01.04.2016 21:25 6,4 C 6,3 C 90 % 1018,1 hPa 0,0 mm 4,5 km/h (1 Bft) O-NO 67 0 min 4,9 C 5,7 km/h (1 Bft)
01.04.2016 21:30 6,3 C 6,3 C 85 % 1018,2 hPa 0,0 mm 5,1 km/h (1 Bft) N-NO 22 0 min 4,0 C 10,1 km/h (2 Bft)
01.04.2016 21:35 6,3 C 6,2 C 90 % 1018,2 hPa 0,0 mm 5,1 km/h (1 Bft) NO 45 0 min 4,8 C 9,8 km/h (2 Bft)
01.04.2016 21:40 6,3 C 6,2 C 90 % 1018,2 hPa 0,0 mm 6,3 km/h (2 Bft) O-NO 67 0 min 4,8 C 10,7 km/h (2 Bft)
01.04.2016 21:45 6,3 C 6,2 C 85 % 1018,2 hPa 0,0 mm 7,2 km/h (2 Bft) NO 45 0 min 4,0 C 13,4 km/h (3 Bft)
01.04.2016 21:50 6,3 C 6,2 C 85 % 1018,1 hPa 0,0 mm 7,7 km/h (2 Bft) NO 45 0 min 4,0 C 13,1 km/h (3 Bft)
01.04.2016 21:55 6,3 C 6,0 C 90 % 1018,1 hPa 0,0 mm 8,9 km/h (2 Bft) O-NO 67 0 min 4,8 C 10,1 km/h (2 Bft)
01.04.2016 22:00 6,2 C 5,9 C 90 % 1018,1 hPa 0,0 mm 9,8 km/h (2 Bft) O-NO 67 0 min 4,7 C 14,3 km/h (3 Bft)
01.04.2016 22:05 6,2 C 6,0 C 90 % 1018,1 hPa 0,0 mm 8,0 km/h (2 Bft) O-NO 67 0 min 4,7 C 9,5 km/h (2 Bft)
01.04.2016 22:10 6,2 C 6,0 C 90 % 1018,1 hPa 0,0 mm 7,7 km/h (2 Bft) NO 45 0 min 4,7 C 9,5 km/h (2 Bft)
01.04.2016 22:15 6,2 C 6,1 C 90 % 1018,1 hPa 0,0 mm 7,2 km/h (2 Bft) W-SW 247 0 min 4,7 C 6,9 km/h (2 Bft)
01.04.2016 22:20 6,2 C 6,2 C 90 % 1018,1 hPa 0,0 mm 6,3 km/h (2 Bft) N-NO 22 0 min 4,7 C 7,2 km/h (2 Bft)
01.04.2016 22:25 6,2 C 6,2 C 90 % 1018,1 hPa 0,0 mm 5,4 km/h (1 Bft) N-NO 22 0 min 4,7 C 9,8 km/h (2 Bft)
01.04.2016 22:30 6,2 C 6,1 C 90 % 1017,9 hPa 0,0 mm 6,9 km/h (2 Bft) NO 45 0 min 4,7 C 6,6 km/h (2 Bft)
01.04.2016 22:35 6,2 C 6,1 C 90 % 1017,9 hPa 0,0 mm 6,6 km/h (2 Bft) O-NO 67 0 min 4,7 C 7,7 km/h (2 Bft)
01.04.2016 22:40 6,2 C 6,1 C 91 % 1017,9 hPa 0,0 mm 6,0 km/h (2 Bft) N-NO 22 0 min 4,8 C 8,0 km/h (2 Bft)
01.04.2016 22:45 6,1 C 6,0 C 91 % 1017,9 hPa 0,0 mm 6,6 km/h (2 Bft) NO 45 0 min 4,7 C 10,4 km/h (2 Bft)
01.04.2016 22:50 6,1 C 6,0 C 91 % 1018,1 hPa 0,0 mm 6,6 km/h (2 Bft) O-NO 67 0 min 4,7 C 5,1 km/h (1 Bft)
01.04.2016 22:55 6,0 C 6,0 C 85 % 1018,1 hPa 0,0 mm 5,7 km/h (1 Bft) NO 45 0 min 3,7 C 15,8 km/h (3 Bft)
01.04.2016 23:00 6,0 C 5,9 C 91 % 1018,1 hPa 0,0 mm 6,6 km/h (2 Bft) NO 45 0 min 4,6 C 6,6 km/h (2 Bft)
01.04.2016 23:05 6,0 C 5,8 C 91 % 1018,1 hPa 0,0 mm 7,7 km/h (2 Bft) N-NO 22 0 min 4,6 C 6,9 km/h (2 Bft)
01.04.2016 23:10 6,0 C 5,8 C 91 % 1018,1 hPa 0,0 mm 6,9 km/h (2 Bft) NO 45 0 min 4,6 C 9,2 km/h (2 Bft)
01.04.2016 23:15 6,0 C 5,9 C 91 % 1018,1 hPa 0,0 mm 4,8 km/h (1 Bft) N-NO 22 0 min 4,6 C 0,0 km/h (0 Bft)
01.04.2016 23:20 6,0 C 5,9 C 91 % 1018,1 hPa 0,0 mm 5,1 km/h (1 Bft) NO 45 0 min 4,6 C 5,1 km/h (1 Bft)
01.04.2016 23:25 6,0 C 5,9 C 91 % 1018,1 hPa 0,0 mm 4,8 km/h (1 Bft) NO 45 0 min 4,6 C 3,0 km/h (1 Bft)
01.04.2016 23:30 6,0 C 5,9 C 91 % 1018,1 hPa 0,0 mm 4,2 km/h (1 Bft) O-NO 67 0 min 4,6 C 0,0 km/h (0 Bft)
01.04.2016 23:35 5,9 C 5,9 C 86 % 1018,1 hPa 0,0 mm 3,6 km/h (1 Bft) O-NO 67 0 min 3,7 C 9,2 km/h (2 Bft)
01.04.2016 23:40 5,9 C 5,9 C 92 % 1018,1 hPa 0,0 mm 4,5 km/h (1 Bft) NO 45 0 min 4,7 C 4,8 km/h (1 Bft)
01.04.2016 23:45 5,9 C 5,9 C 92 % 1018,1 hPa 0,0 mm 5,7 km/h (1 Bft) NO 45 0 min 4,7 C 8,9 km/h (2 Bft)
01.04.2016 23:50 5,9 C 5,9 C 92 % 1017,7 hPa 0,0 mm 5,1 km/h (1 Bft) NO 45 0 min 4,7 C 9,2 km/h (2 Bft)
01.04.2016 23:55 5,9 C 5,9 C 92 % 1017,7 hPa 0,0 mm 4,8 km/h (1 Bft) O-NO 67 0 min 4,7 C 4,5 km/h (1 Bft)
_ Min-Zeit 23:55 23:10 00:25 03:05 - 05:00 - - - 04:40 23:30
Minimum _ 5,9 C 5,8 C 39 % 1007,1 hPa - 0,0 km/h (0 Bft) - - - -0,1 C 0,0 km/h (0 Bft)
_ Max-Zeit 00:25 12:50 23:55 21:45 23:55 05:58 - - 11:55 13:00 05:45
Maximum _ 15,4 C 18,0 C 92 % 1018,2 hPa 0,0 mm 17,6 km/h
W (3 Bft)
- - 5 min 6,9 C 45,0 km/h
W (6 Bft)
Durchschnitt _ 9,8 C 10,2 C 68 % 1013,7 hPa #0,0 mm 5,5 km/h (1 Bft) NO - #5 min. 3,8 C 7,4 km/h (2 Bft)